GW3222 Weather Reports


time (UTC)temp
F
wind
direction
speed
knots
gust
knots
rain 1hr
in
rain 24hr
in
rain mn
in
humidity
%
barometer
mb
20260510180109 78 291 0.9 5.2 0.00 0.00 0.00 75 1016.8
20260510174552 78 215 0.9 4.3 0.00 0.00 0.00 74 1017.1
20260510173052 78 155 0.9 4.3 0.00 0.00 0.00 76 1017.3
20260510171559 77 97 1.7 5.2 0.00 0.00 0.00 79 1017.4
20260510170051 75 136 2.6 7.8 0.00 0.00 0.00 79 1017.7
20260510164557 75 204 1.7 6.1 0.00 0.00 0.00 79 1017.8
20260510163108 75 121 3.5 8.7 0.00 0.00 0.00 84 1017.8
20260510161558 73 195 4.3 7.0 0.00 0.00 0.00 85 1018.0
20260510160057 72 192 3.5 8.7 0.00 0.00 0.00 87 1017.9
20260510154550 71 170 1.7 6.1 0.00 0.00 0.00 88 1018.1
20260510153055 71 192 3.5 7.0 0.00 0.00 0.00 88 1018.1
20260510151551 71 189 0.0 2.6 0.00 0.00 0.00 88 1018.0
20260510150056 70 264 0.9 2.6 0.00 0.00 0.00 90 1018.0
20260510144548 69 185 0.9 1.7 0.00 0.05 0.00 92 1017.7
20260510143058 68 147 1.7 3.5 0.00 0.05 0.00 95 1017.8
20260510141552 67 268 0.9 2.6 0.00 0.05 0.00 97 1018.1
20260510140051 66 357 0.9 2.6 0.00 0.05 0.00 98 1017.9
20260510134556 66 74 0.0 3.5 0.00 0.19 0.00 98 1017.6
20260510133052 65 353 0.0 2.6 0.00 0.19 0.00 98 1017.6
20260510131552 65 0 0.0 1.7 0.00 0.19 0.00 98 1017.4
20260510130054 64 50 0.0 3.5 0.00 0.19 0.00 98 1017.3
20260510124554 64 7 0.0 2.6 0.00 0.39 0.00 98 1017.1
20260510123101 63 0 0.0 1.7 0.00 0.39 0.00 98 1016.8
20260510121554 63 345 0.9 2.6 0.00 0.39 0.00 98 1016.7
20260510120054 62 345 0.0 4.3 0.00 0.39 0.00 98 1016.6
20260510114553 62 0 1.7 4.3 0.00 0.85 0.00 98 1016.2
20260510113101 62 4 0.0 2.6 0.00 0.85 0.00 98 1016.2
20260510111559 62 0 0.0 1.7 0.00 0.85 0.00 98 1015.8
20260510110058 62 58 0.0 0.9 0.00 0.85 0.00 98 1015.6
20260510104601 62 0 0.0 0.9 0.00 0.85 0.00 98 1015.2
20260510103056 62 0 0.0 2.6 0.00 0.85 0.00 98 1015.1
20260510101550 62 350 0.9 2.6 0.00 0.85 0.00 98 1014.9
20260510100056 62 47 0.0 1.7 0.00 0.85 0.00 98 1014.9
20260510094555 62 0 0.9 2.6 0.00 0.85 0.00 98 1014.5
20260510093105 62 227 0.0 0.9 0.00 0.85 0.00 98 1014.6
20260510091554 62 0 0.0 0.9 0.00 0.85 0.00 98 1014.7
20260510090051 62 0 0.0 0.0 0.00 0.85 0.00 98 1014.5
20260510084553 63 0 0.0 0.9 0.00 0.85 0.00 98 1014.2
20260510083055 63 0 0.0 1.7 0.00 0.85 0.00 97 1014.1
20260510081622 63 0 0.0 2.6 0.00 0.85 0.00 98 1014.0
20260510080051 63 205 0.0 2.6 0.00 0.85 0.00 98 1013.8
20260510074549 63 264 0.0 2.6 0.00 0.85 0.00 97 1013.6
20260510073102 63 225 0.9 1.7 0.00 0.85 0.00 98 1013.6
20260510071551 63 0 0.0 1.7 0.00 0.85 0.00 97 1013.5
20260510070052 63 209 0.9 1.7 0.00 0.85 0.00 97 1013.4
20260510064600 63 0 0.0 0.9 0.00 0.85 0.00 97 1013.3
20260510063058 63 0 0.0 0.9 0.00 0.85 0.00 97 1013.1
20260510061555 63 0 0.0 0.9 0.00 0.85 0.00 97 1013.2
20260510060057 64 0 0.0 1.7 0.00 0.85 0.00 97 1013.4
20260510054556 64 352 0.0 0.9 0.00 0.85 0.00 97 1013.5
20260510053115 64 352 0.0 1.7 0.00 0.85 0.00 97 1013.8
20260510051604 64 0 0.0 1.7 0.00 0.85 0.00 97 1013.9
20260510050110 64 145 0.9 3.5 0.00 0.85 0.00 97 1013.9
20260510044606 64 232 0.0 1.7 0.00 0.85 0.85 97 1014.2
20260510043057 64 0 0.0 1.7 0.00 0.85 0.85 97 1014.2
20260510041551 64 0 0.0 1.7 0.00 0.85 0.85 97 1014.1
20260510040053 64 307 0.0 1.7 0.00 0.85 0.85 96 1014.3
20260510034556 65 307 0.0 1.7 0.00 0.85 0.85 96 1014.2
20260510033107 65 0 0.0 1.7 0.00 0.85 0.85 96 1014.0
20260510031554 65 0 0.0 1.7 0.00 0.85 0.85 96 1014.1
20260510030111 65 0 0.0 0.9 0.00 0.85 0.85 96 1014.0
20260510024553 66 0 0.0 1.7 0.00 0.85 0.85 95 1014.1
20260510023052 66 0 0.0 1.7 0.00 0.85 0.85 95 1014.0
20260510021554 66 0 0.0 1.7 0.00 0.85 0.85 95 1014.2
20260510020058 66 0 0.0 4.3 0.00 0.85 0.85 94 1014.1
20260510014602 67 133 3.5 5.2 0.00 0.85 0.85 94 1013.8
20260510013051 67 170 0.9 2.6 0.00 0.85 0.85 94 1014.0
20260510011552 67 160 1.7 3.5 0.00 0.85 0.85 94 1013.7
20260510010052 67 164 2.6 4.3 0.00 0.85 0.85 93 1013.8
20260510004556 68 0 0.0 2.6 0.00 0.85 0.85 93 1013.7
20260510003100 68 179 1.7 4.3 0.00 0.85 0.85 93 1013.2
20260510001556 68 152 2.6 4.3 0.00 0.85 0.85 93 1012.8
20260510000057 68 170 1.7 3.5 0.00 0.85 0.85 92 1012.5
20260509234557 68 0 0.9 1.7 0.00 0.85 0.85 92 1012.7
20260509233059 68 172 2.6 3.5 0.00 0.85 0.85 91 1012.5
20260509231552 69 175 1.7 3.5 0.00 0.85 0.85 92 1012.5
20260509230053 69 191 1.7 4.3 0.00 0.85 0.85 91 1012.4
20260509224553 69 209 1.7 3.5 0.00 0.86 0.85 92 1012.5
20260509223058 69 157 2.6 5.2 0.00 0.86 0.85 92 1012.3
20260509221551 69 137 3.5 6.1 0.00 0.86 0.85 91 1011.9
20260509220056 69 160 2.6 5.2 0.00 0.86 0.85 91 1012.0
20260509214550 70 139 2.6 5.2 0.00 0.90 0.85 90 1011.7
20260509213054 70 201 1.7 4.3 0.00 0.90 0.85 90 1011.8
20260509211557 70 253 0.9 5.2 0.00 0.90 0.85 90 1012.1
20260509210053 70 241 0.9 2.6 0.00 0.90 0.85 90 1012.1
20260509204549 70 214 1.7 4.3 0.00 1.00 0.85 88 1012.0
20260509203058 71 207 2.6 5.2 0.00 1.00 0.85 86 1011.8
20260509201600 72 226 0.9 5.2 0.00 1.00 0.85 86 1011.9
20260509200107 72 292 0.0 2.6 0.00 1.00 0.85 86 1012.0
20260509194552 72 229 3.5 6.1 0.00 1.09 0.85 85 1012.3
20260509193111 71 311 2.6 7.0 0.00 1.09 0.85 88 1012.2
20260509191549 70 293 0.0 2.6 0.00 1.09 0.85 90 1011.9
20260509190052 70 266 0.9 3.5 0.00 1.09 0.85 91 1012.2
20260509184604 69 0 0.0 2.6 0.00 1.15 0.85 91 1011.9
20260509183052 68 286 0.0 2.6 0.00 1.15 0.85 94 1011.9
20260509181555 68 245 0.0 3.5 0.00 1.15 0.85 96 1011.9